Tracking 30056 objects as of 10-Dec-2024
HD Live streaming from Space Station
objects crossing your sky now

STARLINK-31699

Track STARLINK-31699 now!
10-day predictions
STARLINK-31699 is classified as:


NORAD ID: 59551
Int'l Code: 2024-074T
Perigee: 450.3 km
Apogee: 452.1 km
Inclination: 43.0 °
Period: 93.5 minutes
Semi major axis: 6822 km
RCS: Unknown
Launch date: April 18, 2024
Source: United States (US)
Launch site: AIR FORCE EASTERN TEST RANGE (AFETR)
Your satellite tracking list
Your tracking list is empty




NASA's NSSDC Master Catalog

Two Line Element Set (TLE):
1 59551U 24074T   24344.87478327 -.00003552  00000-0 -77820-4 0  9990
2 59551  42.9979  42.6937 0001357 248.4391 111.6321 15.40692972 37500
Source of the keplerian elements: AFSPC